Gold Country Challenge - Toss 29 - 31 Miles

Station: Loon Lake Helipad - T Race

Distance: 30.9 Miles    

Release: 12-Oct-2017 08:00

Weather Release: Mostly Clear/Cold    Arrival: Light Smoke Haze

Wind at Release: Light North     Wind at Arrival:

Temp at Release: °    Temp at Arrival: °

Lofts: 84

Birds: 266

Clocked: 266

Birds arrived 40 Minutes then flew long time+still messing around. Race 1 SAT/SU
Drops Pos Breeder Pigeon Name Color Sex Ent Arrival Speed To Win Eligible Champ
1 Barrett Family Loft - IL 0006-AU17-BARR BC H 1 08:56:05.60 969.527 00:00:00 Yes
2 Flying W - CA 0522-AU17-AUB BC H 1 08:56:08.40 968.721 00:00:03 Yes
3 Gypsy Lofts - CA 5182-AU17-AA Sydney BB H 1 08:56:15.80 966.598 00:00:10 Yes
4 Skychargers - CA 0517-AU17-CORO BBPD H 1 08:56:20.90 965.139 00:00:15 Yes
5 California Breeders Syndicate - CA 19030-AU17-AA BC H 1 08:56:23.60 964.369 00:00:18 Yes
6 Fog City Loft - CA 2328-AU17-FCL BB H 1 08:56:30.20 962.492 00:00:25 Yes
7 Bieche-Stevenson - CA 7240-AU17-BIE BB H 1 08:56:31.10 962.236 00:00:26 Yes
8 Kay Eastwood - CA 19119-AU17-AA BB H 1 08:56:32.00 961.981 00:00:26 Yes
9 Valhalla Loft - CA 0405-AU17-WSJ BC H 1 08:56:32.30 961.896 00:00:27 Yes
10 Thunder Birds Breeding Loft - TX 19807-AU17-ARPU Bourges46 BB C 1 08:56:32.40 961.868 00:00:27 Yes
11 Hayloft - CA 7330-AU17-GSF BC H 1 08:56:32.80 961.754 00:00:27 Yes
12 Genesis Syndicate Loft - AZ 0358-AU17-GEN BC H 1 08:56:35.00 961.131 00:00:29 Yes
13 Aimhigh Loft - CA 0100-AU17-FMT Centrum-100 DC H 1 08:56:43.30 958.787 00:00:38 Yes
14 Lopez/ Saenz - CA 0846-AU17-TCH BB H 1 08:56:45.80 958.083 00:00:40 Yes
15 Gypsy Lofts - CA 5185-AU17-AA M.G. RC H 2 08:56:47.60 957.577 00:00:42 Yes
16 Barrett Family Loft - IL 0003-AU17-BARR BC H 2 08:56:47.90 957.493 00:00:42 Yes
17 D B Loft - CA 4138-AU17-JEDD '' FLATLANDER'' BGRZ H 1 08:56:54.60 955.614 00:00:49 Yes
18 Mike Belus - CA 6731-AU17-JEDD BB H 1 08:57:00.60 953.938 00:00:55 Yes
19 Genesis Syndicate Loft - AZ 0339-AU17-GEN BC H 2 08:57:00.90 953.854 00:00:55 Yes
20 Dream Team - FL 0672-AU17-JCZL SLT H 1 08:57:07.50 952.018 00:01:02 Yes
21 A P C Loft - TX 17169-AU17-APC BB H 1 08:57:10.70 951.130 00:01:05 Yes
22 Gypsy Lofts - CA 5181-AU17-AA Geordie BB H 3 08:57:12.20 950.714 00:01:07 Yes
23 Goshentown Lofts - TN 3468-AU17-VITA DC H 1 08:57:13.30 950.409 00:01:08 Yes
24 Flying W - CA 0526-AU17-AUB GRIZ H 2 08:57:17.90 949.138 00:01:12 Yes
25 Jack's Loft - CA 4381-AU17-FOYS Ganus Wannabe GRIZ H 1 08:57:23.10 947.704 00:01:18 Yes
26 Perfection Loft - KS 3720-AU17-AA BB H 1 08:57:30.20 945.754 00:01:25 Yes
27 Barrett Family Loft - IL 0010-AU17-BARR BCWF H 3 08:57:42.20 942.476 00:01:37 Yes
28 Loizzi - Sikora - CA 3767-AU17-FVC BB H 1 08:57:45.00 941.714 00:01:39 Yes
29 Jactions Loft - CA 15969-AU17-AA BB H 1 08:58:00.80 937.440 00:01:55 Yes
30 V Lin - IA 0376-AU17-VLIN BB H 1 08:58:02.20 937.063 00:01:57 Yes
31 H & H Flying Circus - CA 0713-AU17-ML PIED H 1 08:58:03.60 936.686 00:01:58 Yes
32 Cloux Loft - CO 8135-AU17-FH BCWF H 1 08:58:13.00 934.165 00:02:07 Yes
33 Flying W - CA 0511-AU17-AUB BB H 3 08:58:15.50 933.497 00:02:10 Yes
34 D B Loft - CA 4151-AU17-JEDD '' MAMAS MINK'' BB H 2 08:58:30.50 929.509 00:02:25 Yes
35 Skylinerpl.Com - UT 0915-AU17-UVI "Koopman Rudy" BB H 1 08:58:48.40 924.793 00:02:43 Yes
36 Cloux Loft - CO 8132-AU17-FH BB H 2 08:58:53.00 923.589 00:02:47 Yes
37 De La O-Siino - CA 4190-AU17-COOK BB H 1 08:58:56.00 922.805 00:02:50 Yes
38 Stone Loft - NC 1251-AU17-ACC BBWF H 1 08:59:18.00 917.099 00:03:12 Yes
39 Racing Pigeon Mall - WA 0700-AU17-RPM BC H 1 08:59:18.40 916.996 00:03:13 Yes
40 Genesis Syndicate Loft - AZ 0343-AU17-GEN BC H 3 08:59:25.70 915.119 00:03:20 Yes
41 D B Loft - CA 4139-AU17-JEDD '' HOME ALONE'' BB H 3 08:59:53.50 908.040 00:03:48 Yes
42 John Partridge - CA 0524-AU17-PASO Voyager24 BC H 1 09:00:00.50 906.274 00:03:55 Yes
43 Avalos Loft - CA 0145-AU17-TULE BB H 1 09:00:03.70 905.469 00:03:58 Yes
44 Genesis Syndicate Loft - AZ 0348-AU17-GEN BB H 4 09:00:15.30 902.564 00:04:10 Yes
45 Lopez/ Saenz - CA 0849-AU17-TCH BB H 2 09:00:23.30 900.571 00:04:18 Yes
46 Jack's Loft - CA 4391-AU17-FOYS King's Child GRZ H 2 09:00:43.50 895.578 00:04:38 Yes
47 John Hedderson - CA 7100-AU17-FSC 1080996x13938 BB H 1 09:00:44.70 895.284 00:04:39 Yes
48 Jactions Loft - CA 15952-AU17-AA BCWF H 2 09:00:45.20 895.161 00:04:40 Yes
49 Sugaronni Loft - CA 7042-AU17-FOYS Sugar-Oddie BB H 1 09:00:51.70 893.567 00:04:46 Missing
50 Fleet Washington - DC 1775-AU17-FLET BC H 1 09:01:15.30 887.830 00:05:10 Yes
51 Delmon And Oregel Lofty - NV 2496-AU17-WSJ BB H 1 09:01:17.60 887.274 00:05:12 Yes
52 B S Lofts - CA 0226-AU17-BSL Van Claus BCWF H 1 09:01:29.30 884.460 00:05:24 Yes
53 Blue - Face - CA 1111-AU17-FVC BC H 1 09:01:33.10 883.550 00:05:28 Yes
54 De La O-Siino - CA 4049-AU17-COOK BC H 2 09:01:39.60 881.998 00:05:34 Yes
55 Bolgar Loft - CA 7598-AU17-FSC BB H 1 09:01:44.20 880.903 00:05:39 Yes
56 Skychargers - CA 0186-AU17-SD DC H 2 09:01:44.70 880.784 00:05:39 Yes
57 M2 Loft - UT 0184-AU17-UVI BBSP H 1 09:01:50.00 879.526 00:05:44 Yes
58 Joe Sanford - CA 4398-AU17-JEDD SLT H 1 09:01:59.50 877.279 00:05:54 Yes
59 H & H Flying Circus - CA 0708-AU17-ML BC H 2 09:02:27.70 870.678 00:06:22 Yes
60 Lopez/ Saenz - CA 0833-AU17-TCH DC H 3 09:02:42.90 867.161 00:06:37 Yes
61 D J's Loft Of Ca - CA 6001-AU17-FSC BB H 1 09:02:46.20 866.401 00:06:41 Yes
62 Jactions Loft - CA 15957-AU17-AA BB H 3 09:02:47.50 866.102 00:06:42 Yes
63 Bob & Susie - CA 0861-AU17-AUB BB H 1 09:03:03.20 862.508 00:06:58 Yes
64 Ceyx Loft - CA 0830-AU17-CEYX BCSP H 1 09:03:06.10 861.847 00:07:01 Yes
65 Jerry Gatto - CA 1100-AU17-HANG DCSP H 1 09:03:13.10 860.257 00:07:07 Yes
66 Hayloft - CA 7296-AU17-GSF BB H 2 09:03:16.50 859.486 00:07:11 Yes
67 Tou Loft - TN 0019-AU17-TOU BB H 1 09:03:23.80 857.837 00:07:18 Yes
68 Kay Eastwood - CA 19021-AU17-AA BLK C 2 09:03:26.00 857.341 00:07:20 Yes
69 Aimhigh Loft - CA 0081-AU17-FMT Aim-0081 DC H 2 09:03:38.90 854.445 00:07:33 Yes
70 Hayloft - CA 0042-AU17-GSF BB H 3 09:03:41.00 853.975 00:07:35 Yes
71 Ron Brooks - AR 1739-AU17-REB BC H 1 09:03:46.30 852.793 00:07:41 Yes
72 Perfection Loft & Torres Loft - KS 3719-AU17-AA BB H 1 09:03:50.30 851.902 00:07:45 Yes
73 Mike Belus - CA 6734-AU17-JEDD BB H 2 09:03:54.30 851.013 00:07:49 Yes
74 Marengo Creek Farms - AL 2716-AU17-MCF BB H 1 09:03:57.30 850.348 00:07:52 Yes
75 Lito Maniego Loft - CA 13707-AU17-ARPU BC H 1 09:03:58.60 850.060 00:07:53 Yes
76 Sierra Ranch - CA 0777-AU17-SR SLT H 1 09:04:04.70 848.711 00:07:59 Yes
77 D J's Loft Of Ca - CA 6008-AU17-FSC BB H 2 09:04:11.20 847.279 00:08:06 Yes
78 King Rps Loft - CA 2544-AU17-SFR €€ BOOMERANG 2 €€ BC H 1 09:04:38.00 841.423 00:08:32 Yes
79 Huan Qiu Zhang - NC 1812-IF17-JNC BB H 1 09:04:47.60 839.346 00:08:42 Yes
80 Genesis Syndicate Loft - AZ 0355-AU17-GEN PIED H 5 09:04:52.10 838.375 00:08:47 Yes
81 Jim Lauritzen - CA 0338-AU17-EAV BC H 1 09:05:05.50 835.499 00:09:00 Yes
82 Eastern Pearl Loft - VA 0241-AU17-EPL 🈚️量 241 BB H 1 09:05:28.20 830.671 00:09:23 Yes
83 Silicon Valley Syndicates - CA 0807-AU17-JEDD BB H 1 09:05:58.50 824.312 00:09:53 Yes
84 Barrett Family Loft - IL 0021-AU17-BARR BC H 4 09:06:07.90 822.359 00:10:02 Yes
85 A P C Loft - TX 17197-AU17-APC BB H 2 09:06:16.20 820.643 00:10:11 Yes
86 Eastern Pearl Loft - VA 0221-AU17-EPL 🈚️量 221 BB H 2 09:06:27.50 818.317 00:10:22 Yes
87 Joe Sanford - CA 4399-AU17-JEDD BCWF H 2 09:06:28.20 818.174 00:10:23 Yes
88 A P C Loft - TX 17193-AU17-APC BB H 3 09:06:32.80 817.231 00:10:27 Yes
89 Jactions Loft - CA 15960-AU17-AA BB H 4 09:06:36.00 816.577 00:10:30 Missing
90 Sierra Ranch - CA 0718-AU17-SR BB H 2 09:06:44.40 814.864 00:10:39 Yes
91 Goshentown Lofts - TN 3423-AU17-VITA PIED H 2 09:07:01.60 811.379 00:10:56 Yes
92 Al Shulman - CA 0204-AU17-WSJ BCPD H 1 09:07:06.60 810.371 00:11:01 Yes
93 Goshentown Lofts - TN 3417-AU17-VITA BB H 3 09:07:07.20 810.250 00:11:02 Yes
94 King Rps Loft - CA 2540-AU17-SFR €€ BOOMERANG 3 €€ BC H 2 09:07:10.60 809.567 00:11:05 Yes
95 Flyhome Loft - CA 26324-AU17-ARPU BB H 1 09:07:43.40 803.032 00:11:38 Yes
96 Kim Wong - VT 10880-AU17-ARPU BC H 1 09:07:44.10 802.894 00:11:38 Yes
97 Tou Loft - TN 0106-AU17-TOU PIED H 2 09:07:49.00 801.927 00:11:43 Yes
98 Richard Callahan - MO 1672-AU17-AA BC H 1 09:08:10.00 797.809 00:12:04 Yes
99 Flyin Hawaiian Lanai Loft - HI 0113-AU17-LANA Lokahi 113 BCSP H 1 09:08:11.80 797.458 00:12:06 Yes
100 Nanez Family Lofts - WI 4296-AU17-NFL BBWF H 1 09:08:12.20 797.380 00:12:07 Yes

There are 257 bird records

Note: These Race Results are unofficial and subject to change until verified by the Race Committee and declared final.